Temp
-2 -2 -2 -2 -2 -2 -3 -3 -3 -3 -3 -4 -4 -4 -4 -4 -4 -5 -5 -5 -5 -5 -5 -5 -5 -5 -6 -6 -5 -5 -5 -6 -8 -9 -8 -8 -7 -7 -7 -8 -7 -7 -7 -7 -7
-2 -2 -2 -2 -2 -2 -3 -3 -3 -3 -3 -4 -4 -4 -4 -4 -4 -4 -5 -5 -5 -5 -5 -5 -5 -5 -5 -5 -5 -4 -5 -6 -6 -8 -8 -8 -7 -7 -7 -8 -7 -7 -7 -7 -7
-2 -2 -2 -2 -2 -2 -3 -3 -3 -3 -3 -4 -4 -4 -4 -4 -4 -5 -5 -5 -5 -5 -5 -5 -5 -5 -6 -6 -5 -4 -5 -6 -7 -7 -7 -7 -6 -7 -7 -8 -8 -7 -8 -8 -7
-2 -2 -2 -2 -2 -2 -3 -3 -3 -3 -3 -4 -4 -4 -4 -4 -4 -5 -5 -5 -5 -5 -5 -5 -6 -6 -6 -6 -5 -5 -5 -6 -6 -7 -7 -6 -6 -7 -7 -7 -8 -7 -8 -8 -8
-2 -2 -2 -2 -2 -2 -3 -3 -3 -3 -4 -4 -4 -4 -4 -4 -4 -5 -5 -5 -5 -5 -5 -6 -6 -6 -6 -6 -6 -6 -6 -7 -6 -6 -6 -6 -7 -7 -7 -7 -8 -8 -7 -8 -8
-3 -2 -2 -2 -2 -2 -2 -3 -3 -3 -3 -4 -4 -4 -4 -4 -4 -4 -5 -5 -5 -5 -6 -6 -6 -6 -6 -6 -6 -6 -7 -7 -6 -6 -6 -7 -7 -6 -7 -7 -7 -7 -8 -8 -8
-3 -3 -2 -2 -2 -2 -2 -3 -3 -3 -3 -3 -3 -4 -4 -4 -4 -4 -5 -5 -5 -5 -6 -6 -6 -6 -6 -6 -6 -6 -7 -7 -6 -5 -5 -6 -6 -7 -7 -7 -7 -7 -7 -8 -8
-3 -3 -2 -2 -2 -2 -2 -3 -3 -3 -3 -3 -3 -3 -4 -4 -4 -4 -4 -4 -5 -5 -5 -6 -6 -6 -6 -6 -6 -6 -6 -7 -7 -6 -6 -7 -6 -7 -7 -8 -7 -7 -7 -7 -8
-3 -3 -3 -2 -2 -2 -2 -3 -3 -3 -3 -3 -3 -3 -4 -4 -4 -4 -4 -4 -4 -5 -5 -5 -6 -6 -6 -7 -7 -7 -7 -6 -7 -7 -7 -7 -6 -7 -7 -8 -7 -7 -7 -6 -7
-3 -3 -3 -3 -3 -2 -2 -2 -3 -3 -3 -3 -3 -4 -4 -4 -4 -4 -4 -4 -4 -4 -4 -4 -5 -5 -6 -7 -7 -7 -7 -7 -7 -8 -8 -7 -6 -6 -7 -7 -8 -8 -7 -7 -7
-4 -3 -3 -3 -3 -3 -3 -2 -3 -3 -3 -3 -3 -4 -4 -4 -4 -4 -4 -4 -4 -4 -4 -4 -4 -5 -6 -7 -7 -7 -7 -7 -8 -8 -7 -7 -6 -6 -7 -7 -7 -8 -8 -8 -8
-4 -4 -3 -3 -3 -3 -3 -2 -2 -3 -3 -3 -3 -3 -4 -4 -4 -4 -4 -4 -4 -4 -4 -4 -4 -5 -5 -6 -7 -7 -7 -7 -8 -8 -8 -8 -7 -6 -7 -6 -7 -8 -8 -8 -8
-4 -4 -4 -3 -3 -3 -3 -3 -3 -3 -3 -3 -3 -3 -3 -4 -4 -4 -4 -4 -4 -4 -4 -4 -5 -5 -5 -5 -6 -6 -7 -8 -7 -8 -8 -8 -8 -7 -7 -6 -7 -7 -8 -8 -8
-5 -4 -4 -4 -3 -3 -3 -3 -3 -3 -3 -3 -3 -4 -4 -4 -4 -4 -4 -4 -4 -4 -4 -4 -5 -5 -5 -5 -6 -6 -6 -7 -7 -7 -8 -8 -8 -8 -8 -7 -7 -7 -8 -8 -8
-5 -5 -4 -4 -4 -4 -3 -3 -3 -3 -3 -3 -3 -3 -3 -4 -4 -4 -4 -4 -4 -4 -4 -5 -5 -5 -5 -5 -6 -6 -7 -7 -7 -7 -7 -7 -8 -8 -8 -7 -7 -7 -8 -7 -7
-6 -5 -5 -4 -4 -4 -4 -4 -4 -4 -4 -4 -3 -3 -4 -4 -3 -4 -4 -4 -4 -4 -4 -5 -5 -4 -5 -5 -6 -7 -6 -6 -6 -6 -6 -7 -7 -7 -7 -7 -7 -7 -7 -7 -7
-6 -6 -5 -5 -4 -4 -4 -4 -4 -4 -4 -4 -4 -4 -4 -4 -4 -4 -4 -4 -5 -4 -5 -5 -5 -5 -6 -6 -6 -7 -7 -7 -7 -7 -7 -7 -7 -6 -7 -7 -7 -8 -8 -7 -8
-6 -6 -6 -6 -5 -5 -4 -4 -4 -5 -5 -4 -4 -4 -4 -4 -4 -4 -4 -4 -4 -4 -5 -5 -5 -5 -7 -7 -7 -7 -7 -7 -7 -8 -7 -7 -7 -7 -7 -7 -7 -8 -8 -8 -8
-7 -7 -7 -6 -6 -5 -5 -4 -5 -5 -5 -4 -4 -4 -4 -4 -4 -4 -5 -5 -5 -5 -6 -6 -5 -6 -7 -7 -7 -7 -7 -6 -7 -7 -7 -7 -7 -7 -7 -7 -7 -8 -9 -9 -9
-7 -7 -7 -6 -6 -6 -5 -5 -6 -6 -5 -5 -5 -5 -5 -4 -4 -5 -5 -5 -5 -5 -7 -7 -6 -6 -6 -7 -7 -7 -7 -7 -7 -7 -7 -7 -7 -7 -7 -7 -8 -9 -9 -9 -8
-8 -8 -7 -7 -7 -6 -5 -5 -7 -7 -6 -6 -5 -6 -6 -5 -5 -5 -5 -6 -6 -6 -6 -7 -7 -7 -7 -7 -8 -8 -7 -7 -7 -7 -7 -7 -7 -7 -7 -7 -8 -8 -8 -8 -8
-9 -9 -8 -7 -7 -6 -6 -6 -7 -8 -7 -7 -7 -7 -7 -5 -5 -5 -5 -6 -5 -6 -6 -8 -8 -8 -8 -9 -9 -8 -7 -7 -7 -7 -7 -8 -8 -8 -8 -8 -9 -8 -8 -8 -8
-10 -10 -9 -8 -7 -7 -7 -7 -8 -8 -8 -7 -8 -8 -8 -7 -5 -4 -5 -5 -7 -7 -7 -8 -8 -8 -8 -8 -8 -9 -8 -7 -7 -7 -7 -7 -8 -9 -9 -9 -9 -9 -9 -9 -10
-10 -10 -9 -8 -8 -8 -7 -8 -7 -8 -8 -7 -8 -9 -8 -8 -6 -6 -5 -6 -7 -7 -9 -9 -9 -8 -8 -9 -8 -9 -9 -9 -8 -8 -7 -7 -8 -9 -9 -9 -9 -9 -10 -10 -10
-10 -10 -10 -9 -9 -8 -8 -8 -8 -8 -8 -8 -7 -8 -9 -9 -8 -8 -8 -7 -8 -8 -9 -9 -9 -9 -8 -8 -8 -9 -9 -9 -9 -8 -8 -8 -8 -9 -9 -10 -10 -10 -10 -11 -11
-11 -10 -10 -10 -9 -9 -9 -9 -8 -9 -8 -8 -7 -8 -9 -9 -8 -8 -8 -8 -8 -9 -9 -9 -9 -9 -8 -8 -8 -9 -9 -8 -9 -8 -8 -8 -8 -8 -9 -10 -10 -11 -11 -11 -11
-11 -11 -10 -10 -10 -10 -10 -9 -9 -10 -9 -8 -8 -8 -8 -9 -9 -9 -8 -9 -9 -9 -9 -9 -9 -9 -9 -9 -9 -9 -9 -9 -9 -8 -8 -8 -9 -9 -9 -10 -10 -10 -11 -11 -11
Height
5904 5905 5905 5905 5905 5906 5907 5908 5909 5910 5911 5911 5912 5913 5914 5914 5915 5916 5917 5918 5917 5916 5915 5916 5917 5918 5919 5920 5920 5918 5914 5911 5910 5908 5910 5910 5909 5909 5911 5911 5910 5905 5904 5904 5903
5904 5904 5905 5905 5906 5907 5908 5909 5911 5911 5912 5913 5914 5914 5915 5916 5917 5918 5919 5919 5919 5919 5917 5917 5916 5916 5917 5918 5918 5917 5914 5912 5911 5911 5911 5910 5911 5912 5914 5914 5913 5911 5907 5906 5905
5903 5904 5905 5906 5907 5908 5909 5910 5912 5913 5913 5914 5915 5916 5917 5918 5918 5919 5920 5920 5921 5920 5920 5919 5919 5918 5915 5918 5919 5916 5912 5913 5913 5915 5913 5912 5914 5915 5916 5915 5915 5913 5911 5908 5907
5902 5903 5904 5906 5907 5908 5909 5910 5912 5913 5914 5915 5915 5916 5917 5919 5921 5920 5920 5921 5921 5921 5922 5921 5920 5918 5916 5918 5918 5918 5915 5912 5914 5916 5917 5913 5915 5917 5915 5916 5916 5915 5914 5910 5909
5900 5902 5904 5905 5906 5907 5909 5910 5912 5913 5915 5915 5916 5916 5917 5919 5920 5921 5921 5922 5922 5922 5921 5920 5920 5919 5918 5920 5920 5918 5916 5917 5918 5917 5918 5914 5918 5918 5918 5917 5917 5915 5915 5912 5910
5898 5900 5902 5904 5905 5907 5908 5910 5911 5913 5914 5915 5916 5917 5918 5919 5920 5921 5922 5922 5922 5922 5921 5921 5921 5921 5920 5921 5920 5919 5918 5919 5919 5919 5918 5920 5919 5920 5920 5918 5917 5917 5915 5913 5911
5896 5898 5900 5902 5904 5905 5907 5909 5911 5912 5913 5915 5915 5917 5918 5920 5920 5921 5922 5923 5923 5923 5922 5921 5921 5921 5921 5919 5918 5919 5918 5918 5918 5918 5918 5918 5921 5920 5920 5919 5918 5917 5915 5913 5912
5893 5895 5898 5900 5902 5903 5906 5907 5909 5911 5912 5913 5914 5916 5918 5919 5919 5920 5921 5922 5922 5921 5921 5920 5921 5920 5920 5920 5919 5919 5920 5920 5919 5917 5918 5918 5920 5921 5920 5920 5919 5918 5917 5915 5913
5890 5892 5895 5897 5899 5901 5903 5905 5907 5909 5910 5912 5914 5915 5917 5918 5919 5920 5921 5921 5921 5921 5920 5919 5919 5919 5920 5920 5920 5920 5920 5920 5919 5918 5918 5919 5919 5920 5920 5920 5920 5919 5918 5917 5916
5886 5889 5891 5894 5897 5899 5901 5903 5905 5907 5908 5910 5912 5916 5916 5917 5917 5918 5920 5920 5920 5920 5920 5919 5918 5919 5920 5920 5920 5919 5919 5919 5917 5918 5917 5919 5918 5919 5919 5921 5921 5919 5919 5920 5918
5881 5885 5888 5891 5893 5896 5898 5900 5903 5905 5906 5908 5910 5912 5913 5915 5916 5917 5917 5918 5919 5919 5918 5918 5918 5920 5919 5919 5918 5917 5915 5916 5917 5917 5917 5917 5917 5918 5919 5919 5919 5920 5921 5921 5919
5877 5880 5883 5886 5890 5892 5895 5898 5901 5903 5904 5905 5907 5908 5910 5911 5914 5915 5915 5916 5916 5917 5917 5917 5917 5917 5917 5916 5915 5915 5915 5914 5916 5915 5916 5915 5914 5916 5917 5918 5918 5920 5921 5921 5920
5871 5875 5878 5881 5885 5889 5891 5894 5896 5898 5900 5903 5904 5905 5907 5909 5910 5912 5913 5913 5914 5914 5915 5915 5915 5915 5914 5914 5914 5915 5915 5915 5916 5916 5915 5915 5913 5914 5917 5917 5918 5920 5921 5921 5919
5866 5869 5873 5876 5882 5883 5886 5889 5891 5893 5895 5899 5901 5902 5903 5905 5906 5908 5910 5911 5911 5912 5913 5913 5913 5913 5914 5914 5913 5912 5913 5913 5914 5915 5916 5914 5911 5912 5914 5916 5918 5918 5918 5919 5917
5859 5862 5866 5870 5874 5878 5881 5884 5886 5889 5891 5894 5895 5899 5899 5902 5903 5904 5906 5907 5907 5909 5910 5912 5911 5911 5911 5909 5910 5910 5910 5910 5910 5911 5912 5913 5911 5909 5911 5913 5915 5916 5915 5915 5915
5851 5855 5859 5864 5867 5872 5874 5878 5881 5885 5885 5888 5890 5893 5896 5898 5899 5901 5902 5903 5905 5906 5906 5907 5907 5909 5908 5907 5908 5908 5910 5910 5909 5910 5911 5909 5908 5907 5908 5911 5912 5912 5912 5913 5912
5843 5848 5852 5856 5860 5863 5867 5871 5875 5878 5881 5883 5884 5887 5890 5893 5895 5897 5899 5900 5901 5902 5903 5904 5904 5905 5906 5906 5906 5906 5906 5906 5907 5908 5909 5906 5905 5906 5907 5907 5908 5908 5908 5907 5908
5835 5840 5844 5847 5853 5855 5859 5864 5868 5872 5874 5875 5878 5881 5885 5888 5890 5891 5894 5895 5897 5897 5899 5900 5901 5902 5902 5903 5904 5903 5904 5904 5903 5904 5906 5904 5903 5904 5905 5904 5904 5904 5905 5906 5906
5825 5831 5835 5837 5844 5847 5851 5855 5862 5864 5866 5869 5872 5875 5878 5882 5886 5886 5888 5892 5892 5894 5896 5896 5897 5898 5899 5900 5900 5900 5901 5901 5900 5899 5899 5900 5900 5900 5901 5900 5900 5900 5901 5901 5902
5814 5821 5824 5828 5835 5838 5842 5849 5854 5855 5859 5862 5867 5872 5873 5875 5879 5882 5883 5887 5888 5890 5891 5893 5893 5895 5896 5896 5897 5896 5898 5897 5896 5895 5895 5894 5894 5895 5897 5897 5897 5897 5897 5896 5897
5803 5809 5815 5818 5824 5828 5833 5842 5847 5848 5852 5855 5859 5863 5866 5868 5871 5875 5880 5883 5882 5884 5886 5889 5890 5891 5891 5892 5892 5891 5891 5891 5892 5891 5891 5891 5889 5889 5891 5891 5891 5891 5890 5890 5889
5791 5797 5802 5806 5814 5819 5826 5834 5838 5841 5844 5848 5850 5854 5858 5863 5865 5867 5873 5878 5879 5880 5881 5883 5887 5886 5887 5887 5888 5886 5886 5887 5886 5888 5886 5886 5887 5884 5885 5885 5885 5885 5884 5883 5882
5780 5783 5789 5795 5802 5810 5816 5821 5828 5833 5835 5839 5842 5845 5849 5856 5861 5862 5864 5867 5870 5872 5874 5879 5881 5883 5883 5884 5883 5883 5883 5881 5881 5882 5882 5881 5881 5881 5879 5879 5879 5878 5877 5876 5874
5767 5771 5778 5784 5790 5796 5802 5809 5816 5823 5826 5828 5835 5838 5841 5848 5854 5857 5860 5861 5863 5865 5868 5871 5873 5876 5877 5879 5880 5879 5878 5876 5875 5874 5876 5877 5874 5874 5874 5873 5872 5871 5870 5868 5867
5753 5760 5766 5772 5778 5784 5791 5799 5804 5813 5818 5819 5825 5832 5837 5841 5845 5848 5852 5854 5857 5860 5862 5865 5867 5868 5871 5873 5874 5876 5874 5871 5868 5867 5868 5869 5868 5868 5868 5868 5867 5866 5866 5864 5863
5740 5749 5754 5760 5768 5775 5782 5788 5795 5801 5809 5811 5814 5824 5830 5834 5839 5843 5846 5850 5852 5853 5855 5857 5859 5861 5863 5866 5867 5867 5866 5864 5862 5861 5860 5859 5860 5862 5862 5859 5859 5859 5858 5856 5854
5726 5735 5742 5749 5756 5765 5772 5779 5786 5792 5800 5804 5806 5812 5821 5826 5830 5835 5839 5841 5845 5847 5850 5851 5853 5855 5856 5858 5858 5858 5858 5855 5855 5854 5853 5852 5853 5853 5853 5853 5852 5848 5845 5844 5843
Wind_Speed
11 8 5 4 7 11 12 14 13 13 14 14 14 14 12 12 12 13 12 10 11 9 8 11 10 12 10 5 2 2 10 17 16 12 12 14 18 20 23 18 19 20 19 17 19
13 10 7 8 9 11 13 13 13 13 13 14 14 13 12 11 11 10 10 9 8 8 6 6 8 10 10 13 10 2 13 16 16 13 10 10 15 18 19 16 17 17 16 17 16
14 12 10 10 11 12 13 13 13 13 12 12 12 12 11 11 10 9 9 7 7 6 6 5 6 8 13 12 7 3 9 12 12 10 7 9 11 14 17 16 14 17 14 15 17
15 13 12 12 12 13 13 13 13 13 12 11 9 9 8 8 8 7 7 6 4 3 4 4 4 7 10 12 10 6 6 12 8 9 5 8 10 13 18 17 10 16 14 14 16
17 15 14 15 14 14 13 14 13 13 12 11 9 8 7 8 8 7 7 7 6 4 3 3 3 4 7 6 6 4 6 3 3 6 7 9 6 10 15 19 15 14 14 15 16
18 17 16 16 16 15 15 15 14 13 12 11 10 8 7 8 9 8 8 8 8 6 3 2 1 3 1 4 4 2 3 2 1 2 7 8 4 7 17 15 19 20 14 13 14
20 18 18 17 17 17 16 16 15 14 13 12 12 10 9 10 9 9 8 7 7 7 5 5 6 4 3 8 4 1 8 1 4 1 6 11 8 14 15 22 23 22 20 15 12
22 20 19 18 18 18 18 17 16 15 15 14 14 13 12 11 11 9 8 6 5 5 6 5 4 4 9 6 4 3 8 2 5 7 8 13 11 13 15 21 22 22 19 15 10
23 22 20 20 19 19 19 19 18 17 16 16 16 15 13 12 11 10 8 6 4 3 3 5 4 10 7 6 4 0 5 7 0 9 12 15 10 10 13 19 21 24 20 15 12
25 24 22 21 21 20 19 19 19 18 18 18 17 16 14 13 12 11 10 7 4 3 5 6 5 9 7 9 6 8 10 3 3 7 9 12 12 9 10 17 19 22 25 23 19
26 25 24 23 22 21 21 20 20 19 19 18 17 18 17 14 14 14 12 10 9 6 7 7 8 5 8 11 13 15 17 7 3 5 10 16 10 5 3 12 16 18 19 22 19
27 27 26 25 23 22 22 21 19 19 20 20 18 20 19 18 15 15 14 12 11 8 11 9 7 8 11 14 16 16 14 10 9 12 12 16 15 9 1 7 11 16 18 19 20
29 29 27 26 25 24 22 21 20 19 21 20 21 20 20 19 17 16 16 15 15 14 12 10 8 8 10 9 13 14 17 17 16 13 11 17 14 12 6 3 3 7 11 17 19
31 31 30 29 27 25 24 23 22 21 21 21 21 22 22 20 20 18 18 17 16 14 9 9 8 11 10 7 5 4 9 13 18 19 16 17 20 20 14 7 4 6 10 16 18
33 33 33 31 29 28 27 24 24 23 22 22 22 20 22 19 19 18 17 17 17 14 11 7 10 14 12 12 7 6 12 11 13 16 19 22 22 21 18 13 11 9 11 17 17
34 34 34 33 31 31 30 28 27 26 22 21 22 21 20 20 21 17 16 17 13 14 13 8 14 14 12 12 8 9 8 10 14 13 13 18 21 21 22 17 16 11 13 17 19
35 34 35 35 34 33 33 31 30 28 25 23 23 21 21 20 19 17 16 17 16 16 13 11 14 13 10 11 10 11 11 13 16 13 12 18 21 21 18 15 16 13 18 21 23
37 35 36 38 35 36 36 34 33 29 29 30 28 26 23 21 19 20 19 19 19 18 15 14 15 12 11 13 11 13 9 12 17 20 18 23 27 26 23 22 19 17 20 21 24
41 37 37 41 38 38 39 37 32 34 35 34 32 31 28 26 24 24 22 20 20 19 14 14 16 15 14 12 16 15 14 13 17 18 19 20 23 24 22 25 26 25 23 25 26
43 41 40 42 39 41 41 38 33 35 36 35 33 29 29 28 25 22 22 19 21 20 16 15 19 17 17 14 13 15 12 13 14 16 18 23 25 26 25 27 25 22 25 30 32
45 43 45 45 42 44 43 38 33 37 38 38 36 33 32 32 29 26 24 23 24 22 17 13 18 20 18 17 17 20 16 15 15 18 16 18 25 26 25 26 27 29 32 35 38
46 45 47 48 47 45 42 38 36 41 41 40 38 35 35 31 28 26 24 26 27 25 20 17 14 19 18 18 19 23 25 21 23 20 20 18 21 25 27 29 32 34 38 39 37
48 48 49 50 49 47 43 42 39 46 47 46 43 41 38 35 31 30 26 25 24 24 19 20 21 18 20 20 22 25 25 27 28 25 24 25 22 23 28 30 32 35 38 39 40
50 51 50 50 50 50 49 46 44 47 53 52 49 46 43 38 33 32 31 32 29 27 25 24 28 23 24 25 23 25 28 32 34 34 30 26 28 29 29 32 34 34 36 40 43
51 52 53 52 51 52 50 49 48 48 55 57 54 53 47 44 41 39 35 35 35 34 35 34 32 32 29 26 25 25 29 34 38 37 35 33 31 32 32 33 34 36 37 40 43
52 50 54 54 51 50 49 49 48 47 55 60 58 54 55 52 47 43 41 38 40 40 39 40 38 36 35 32 34 35 35 33 36 38 37 38 36 35 36 39 40 42 43 45 46
53 51 53 55 54 51 49 48 46 46 51 59 61 57 52 56 53 49 47 46 45 46 47 46 47 46 45 41 42 43 35 32 32 36 39 40 40 41 42 41 42 47 50 51 46
Wind_Direction
176 172 172 167 151 145 147 140 133 125 118 117 117 117 121 119 120 119 117 111 103 98 75 66 67 71 93 104 76 168 79 73 68 37 13 8 13 19 35 44 38 28 31 50 59
180 174 172 165 161 156 155 148 140 135 126 121 120 118 119 119 116 116 115 112 101 101 79 59 59 54 49 14 346 52 80 69 65 41 356 355 2 10 32 42 39 38 29 40 55
184 177 176 172 170 168 164 158 151 146 140 133 128 124 123 121 120 114 111 110 107 100 91 66 37 33 36 2 7 25 79 78 65 61 1 330 10 22 42 44 26 44 33 39 43
190 184 181 180 179 177 173 170 163 158 155 149 146 139 137 140 131 133 129 123 107 99 94 72 44 40 32 350 343 359 48 58 70 72 38 333 20 45 35 42 22 39 48 37 40
193 191 187 186 185 183 183 180 174 169 169 167 166 158 152 151 149 149 145 142 139 130 87 35 8 22 34 335 324 336 55 73 64 97 87 359 36 40 24 31 34 41 49 48 42
197 195 192 191 191 189 188 187 186 182 179 180 183 174 167 160 152 144 138 137 143 139 140 175 257 274 297 274 271 182 167 83 249 154 79 74 358 24 30 38 40 40 39 32 43
200 199 197 196 195 195 192 193 192 190 190 195 195 185 173 165 162 158 152 151 149 152 177 194 197 220 238 242 258 126 175 101 27 139 70 47 61 38 43 47 39 37 39 44 32
204 203 202 202 199 200 198 195 195 193 191 196 195 188 179 175 178 176 169 169 172 190 201 220 219 220 231 237 239 169 177 93 4 35 32 21 23 51 59 42 35 35 36 45 41
208 207 207 207 207 203 203 201 199 197 197 198 199 199 190 193 187 181 188 181 170 207 240 241 227 239 248 191 194 191 189 221 324 31 16 354 349 3 63 44 32 33 38 44 44
210 211 210 211 211 209 206 206 205 203 202 202 204 205 210 203 206 196 203 215 232 245 261 277 257 262 234 199 217 241 260 237 11 13 0 341 327 10 64 47 40 47 47 39 42
214 213 214 214 214 213 211 208 210 209 207 206 203 208 212 215 217 213 219 226 240 255 275 283 280 281 224 215 235 252 261 245 299 289 318 331 306 353 81 54 52 49 22 11 27
218 216 216 215 215 216 216 214 215 215 213 211 209 211 211 217 215 225 228 235 256 261 259 263 267 264 242 231 233 235 239 241 247 284 314 308 297 328 98 66 71 33 22 8 13
220 219 217 218 216 216 218 216 217 217 216 215 215 219 216 219 219 226 231 237 248 248 240 248 250 262 260 253 241 236 221 235 250 259 278 279 286 302 312 224 353 33 6 357 15
221 221 218 218 218 218 219 217 216 216 218 219 215 217 228 224 229 230 232 233 238 241 238 254 262 256 254 217 192 206 215 243 250 254 240 264 280 281 293 268 296 343 351 341 10
224 222 222 219 218 218 220 219 217 219 218 219 221 213 227 223 229 227 227 228 231 232 227 240 261 243 234 234 206 212 213 233 232 223 225 239 253 269 269 275 293 305 325 336 0
226 225 224 220 219 219 221 218 217 218 216 218 218 216 216 217 226 224 226 230 232 230 229 228 252 258 252 245 229 218 245 251 242 246 251 235 244 260 272 294 276 295 296 323 341
228 225 226 224 219 220 221 220 218 218 218 218 219 218 214 214 224 224 223 228 228 232 231 229 247 258 275 253 233 211 224 238 244 241 235 250 253 271 279 281 274 286 295 316 322
230 226 226 226 220 220 221 220 220 215 213 219 219 219 215 219 216 228 226 226 232 235 231 238 250 267 241 246 244 220 231 246 247 246 240 255 262 267 256 267 282 281 291 301 305
230 225 226 226 223 222 222 221 217 218 219 219 223 225 226 224 217 221 228 225 234 240 242 252 261 260 248 249 233 225 263 263 252 259 252 246 251 256 266 269 279 285 287 285 288
230 225 224 228 223 224 224 221 215 218 224 224 224 224 227 225 222 214 228 235 239 235 236 246 258 252 239 249 249 260 270 277 274 271 264 260 257 259 263 266 274 279 276 278 286
227 225 224 227 225 225 225 222 214 217 222 226 226 224 221 223 226 225 222 218 225 236 238 226 247 258 258 260 276 286 281 277 278 278 272 267 269 275 275 274 275 277 281 287 291
227 226 223 225 225 226 225 221 211 211 222 224 230 227 227 225 234 236 227 223 228 235 245 261 236 254 264 269 271 280 283 276 280 275 279 276 265 266 267 270 273 277 283 286 288
229 227 224 224 224 225 223 222 213 206 218 222 223 228 229 231 228 237 245 249 242 245 251 253 257 250 242 255 269 282 285 285 283 283 290 295 294 275 270 271 273 277 282 288 293
229 228 225 223 223 222 221 219 217 207 215 224 220 224 229 232 237 238 237 244 249 252 246 251 258 258 258 258 265 278 288 284 281 285 289 290 290 287 279 274 277 285 288 290 293
228 227 227 225 223 223 222 220 219 208 211 225 226 223 224 229 234 241 239 247 248 245 245 246 248 258 265 272 280 284 283 283 280 281 287 286 283 284 287 289 289 291 290 289 288
228 225 227 228 225 227 225 222 220 214 212 221 230 226 224 227 235 238 246 247 247 249 251 255 258 266 272 277 280 285 282 273 266 273 275 279 283 286 287 292 293 290 287 288 288
226 223 225 225 226 224 226 226 224 220 213 219 230 232 230 227 232 236 240 250 245 243 247 252 257 263 271 277 279 281 275 270 265 266 273 276 282 285 285 287 287 287 284 282 286